When you browse on this site, cookies collect data to enhance your experience and personalize the content and advertising you see.
Visit our Privacy Policy to learn more. By continuing to use the site, you agree to this use of cookies and data.
  • In Hungary
  • List of Countries
  • For 7 days
  • Water Temperature
  • Weather Map
  • News
  • Weather Widgets
  • user-avatar
    Login

    Hourly Weather Bolshie Selischi

    Today, 26 January, Sunday

    Time Temperature Precipitation Wind Pressure Humidity
    00:00 -5°C° 0 mm 5 mps 740 mmHg 81%
    01:00 -5°C° 0 mm 5 mps 740 mmHg 81%
    02:00 -5°C° 0 mm 5 mps 741 mmHg 81%
    03:00 -5°C° 0 mm 5 mps 742 mmHg 81%
    04:00 -5°C° 0 mm 4 mps 742 mmHg 81%
    05:00 -5°C° 0 mm 4 mps 743 mmHg 81%
    06:00 -5°C° 0 mm 4 mps 743 mmHg 83%
    07:00 -5°C° 0 mm 3 mps 744 mmHg 84%
    08:00 -5°C° 0 mm 3 mps 744 mmHg 86%
    09:00 -4°C° 0 mm 3 mps 745 mmHg 84%
    10:00 -4°C° 0 mm 3 mps 745 mmHg 81%
    11:00 -3°C° 0 mm 4 mps 745 mmHg 79%
    12:00 -3°C° 0 mm 4 mps 745 mmHg 78%
    13:00 -4°C° 0 mm 5 mps 744 mmHg 78%
    14:00 -2°C° 0 mm 5 mps 744 mmHg 77%
    15:00 -2°C° 0.3 mm 5 mps 743 mmHg 83%
    16:00 -3°C° 0.3 mm 6 mps 743 mmHg 89%
    17:00 -3°C° 0.3 mm 6 mps 742 mmHg 94%
    18:00 -2°C° 0.1 mm 6 mps 742 mmHg 94%
    19:00 -2°C° 0.1 mm 6 mps 741 mmHg 94%
    20:00 -1°C° 0.1 mm 6 mps 741 mmHg 93%
    21:00 +1°C° 0.1 mm 6 mps 741 mmHg 93%
    22:00 +1°C° 0.1 mm 6 mps 741 mmHg 93%
    23:00 +1°C° 0.1 mm 6 mps 741 mmHg 93%

    Tomorrow, 27 January, Monday

    Time Temperature Precipitation Wind Pressure Humidity
    00:00 +1°C° 0 mm 6 mps 741 mmHg 92%
    01:00 +1°C° 0 mm 5 mps 742 mmHg 92%
    02:00 +1°C° 0 mm 5 mps 742 mmHg 92%
    03:00 +1°C° 0.1 mm 4 mps 743 mmHg 94%
    04:00 +1°C° 0.1 mm 4 mps 743 mmHg 95%
    05:00 +1°C° 0.1 mm 3 mps 744 mmHg 96%
    06:00 +1°C° 0.2 mm 3 mps 744 mmHg 96%
    07:00 +1°C° 0.2 mm 2 mps 745 mmHg 97%
    08:00 -1°C° 0.2 mm 2 mps 745 mmHg 97%
    09:00 -1°C° 0.1 mm 2 mps 746 mmHg 95%
    10:00 -1°C° 0.1 mm 2 mps 746 mmHg 94%
    11:00 -1°C° 0.1 mm 2 mps 747 mmHg 92%
    12:00 -1°C° 0.1 mm 2 mps 746 mmHg 93%
    13:00 -1°C° 0.1 mm 2 mps 746 mmHg 94%
    14:00 -1°C° 0.1 mm 2 mps 746 mmHg 96%
    15:00 -1°C° 0.4 mm 2 mps 746 mmHg 96%
    16:00 -2°C° 0.4 mm 2 mps 746 mmHg 96%
    17:00 -2°C° 0.4 mm 2 mps 746 mmHg 97%
    18:00 -1°C° 0.4 mm 2 mps 746 mmHg 97%
    19:00 -1°C° 0.4 mm 2 mps 746 mmHg 97%
    20:00 -1°C° 0.4 mm 2 mps 746 mmHg 98%
    21:00 +1°C° 0.4 mm 2 mps 746 mmHg 98%
    22:00 +1°C° 0.4 mm 2 mps 746 mmHg 98%
    23:00 +1°C° 0.4 mm 2 mps 745 mmHg 98%

    Day after tomorrow, 28 January, Tuesday

    Time Temperature Precipitation Wind Pressure Humidity
    00:00 +1°C° 0.4 mm 2 mps 745 mmHg 98%
    01:00 +1°C° 0.4 mm 2 mps 745 mmHg 98%
    02:00 +1°C° 0.4 mm 2 mps 744 mmHg 98%
    03:00 +1°C° 0.3 mm 2 mps 744 mmHg 98%
    04:00 +1°C° 0.3 mm 2 mps 744 mmHg 98%
    05:00 0°C° 0.3 mm 3 mps 744 mmHg 98%
    06:00 +1°C° 0.2 mm 2 mps 743 mmHg 98%
    07:00 -1°C° 0.2 mm 2 mps 743 mmHg 98%
    08:00 -1°C° 0.2 mm 2 mps 743 mmHg 98%
    09:00 -1°C° 0.1 mm 2 mps 743 mmHg 97%
    10:00 -1°C° 0.1 mm 2 mps 743 mmHg 97%
    11:00 -1°C° 0.1 mm 2 mps 743 mmHg 96%
    12:00 -1°C° 0 mm 2 mps 743 mmHg 95%
    13:00 -1°C° 0 mm 2 mps 743 mmHg 95%
    14:00 +1°C° 0 mm 2 mps 743 mmHg 94%
    15:00 -1°C° 0 mm 2 mps 743 mmHg 95%
    16:00 -1°C° 0 mm 2 mps 743 mmHg 95%
    17:00 +1°C° 0 mm 1 mps 743 mmHg 96%
    18:00 +1°C° 0 mm 1 mps 743 mmHg 96%
    19:00 +1°C° 0 mm 1 mps 743 mmHg 96%
    20:00 +1°C° 0 mm 1 mps 743 mmHg 95%
    21:00 -1°C° 0 mm 2 mps 743 mmHg 94%
    22:00 -1°C° 0 mm 2 mps 743 mmHg 94%
    23:00 -1°C° 0 mm 2 mps 744 mmHg 93%

    29 January, Wednesday

    Time Temperature Precipitation Wind Pressure Humidity
    00:00 -1°C° 0 mm 2 mps 743 mmHg 93%
    01:00 +1°C° 0 mm 1 mps 743 mmHg 94%
    02:00 +1°C° 0 mm 1 mps 743 mmHg 95%
    03:00 -1°C° 0 mm 2 mps 743 mmHg 95%
    04:00 -1°C° 0 mm 2 mps 743 mmHg 95%
    05:00 -1°C° 0 mm 2 mps 743 mmHg 95%
    06:00 -1°C° 0 mm 2 mps 743 mmHg 94%
    07:00 -1°C° 0 mm 2 mps 743 mmHg 94%
    08:00 -1°C° 0 mm 2 mps 743 mmHg 94%
    09:00 -1°C° 0 mm 2 mps 743 mmHg 93%
    10:00 0°C° 0 mm 3 mps 743 mmHg 92%
    11:00 0°C° 0 mm 3 mps 742 mmHg 91%
    12:00 0°C° 0 mm 3 mps 742 mmHg 91%
    13:00 0°C° 0 mm 3 mps 742 mmHg 91%
    14:00 0°C° 0 mm 3 mps 741 mmHg 91%
    15:00 0°C° 0 mm 3 mps 741 mmHg 92%
    16:00 0°C° 0 mm 3 mps 741 mmHg 93%
    17:00 0°C° 0 mm 3 mps 741 mmHg 95%
    18:00 -1°C° 0 mm 4 mps 740 mmHg 95%
    19:00 -1°C° 0 mm 4 mps 740 mmHg 95%
    20:00 -1°C° 0 mm 4 mps 740 mmHg 95%
    21:00 -1°C° 0 mm 4 mps 739 mmHg 96%
    22:00 -1°C° 0 mm 5 mps 739 mmHg 96%
    23:00 -1°C° 0 mm 5 mps 738 mmHg 97%

    30 January, Thursday

    Time Temperature Precipitation Wind Pressure Humidity
    00:00 -1°C° 0.1 mm 5 mps 738 mmHg 97%
    01:00 0°C° 0.1 mm 5 mps 737 mmHg 97%
    02:00 0°C° 0.1 mm 5 mps 737 mmHg 97%
    03:00 0°C° 0.2 mm 5 mps 736 mmHg 96%
    04:00 0°C° 0.2 mm 5 mps 736 mmHg 95%
    05:00 0°C° 0.2 mm 4 mps 735 mmHg 95%
    06:00 0°C° 0.1 mm 4 mps 735 mmHg 95%
    07:00 0°C° 0.1 mm 4 mps 735 mmHg 95%
    08:00 0°C° 0.1 mm 4 mps 735 mmHg 96%
    09:00 0°C° 0.3 mm 4 mps 735 mmHg 96%
    10:00 0°C° 0.3 mm 4 mps 735 mmHg 97%
    11:00 0°C° 0.3 mm 4 mps 735 mmHg 97%
    12:00 +1°C° 0.4 mm 3 mps 734 mmHg 96%
    13:00 0°C° 0.4 mm 3 mps 734 mmHg 95%
    14:00 0°C° 0.4 mm 3 mps 734 mmHg 93%
    15:00 -1°C° 0.2 mm 3 mps 734 mmHg 93%
    16:00 -1°C° 0.2 mm 3 mps 734 mmHg 94%
    17:00 -1°C° 0.2 mm 3 mps 735 mmHg 94%
    18:00 -1°C° 0 mm 3 mps 735 mmHg 93%
    19:00 -2°C° 0 mm 3 mps 735 mmHg 93%
    20:00 -2°C° 0 mm 3 mps 735 mmHg 92%
    21:00 -2°C° 0 mm 2 mps 735 mmHg 93%
    22:00 -2°C° 0 mm 2 mps 735 mmHg 93%
    23:00 -2°C° 0 mm 2 mps 735 mmHg 93%

    31 January, Friday

    Time Temperature Precipitation Wind Pressure Humidity
    00:00 -2°C° 0.1 mm 2 mps 735 mmHg 95%
    01:00 -2°C° 0.1 mm 2 mps 735 mmHg 96%
    02:00 -2°C° 0.1 mm 2 mps 734 mmHg 97%
    03:00 -2°C° 0.2 mm 2 mps 734 mmHg 97%
    04:00 -2°C° 0.2 mm 2 mps 734 mmHg 98%
    05:00 -2°C° 0.2 mm 2 mps 734 mmHg 98%
    06:00 0°C° 0.1 mm 1 mps 735 mmHg 98%
    07:00 0°C° 0.1 mm 1 mps 735 mmHg 98%
    08:00 0°C° 0.1 mm 1 mps 735 mmHg 98%
    09:00 +1°C° 0.1 mm 1 mps 735 mmHg 97%
    10:00 +1°C° 0.1 mm 1 mps 736 mmHg 96%
    11:00 +1°C° 0.1 mm 1 mps 736 mmHg 95%
    12:00 +1°C° 0.1 mm 1 mps 736 mmHg 94%
    13:00 -1°C° 0.1 mm 2 mps 737 mmHg 94%
    14:00 -1°C° 0.1 mm 2 mps 737 mmHg 94%
    15:00 -1°C° 0 mm 2 mps 737 mmHg 93%
    16:00 -1°C° 0 mm 2 mps 738 mmHg 93%
    17:00 -1°C° 0 mm 2 mps 738 mmHg 92%
    18:00 -1°C° 0 mm 2 mps 739 mmHg 92%
    19:00 -2°C° 0 mm 2 mps 739 mmHg 91%
    20:00 -2°C° 0 mm 2 mps 740 mmHg 91%
    21:00 -2°C° 0 mm 2 mps 740 mmHg 91%
    22:00 -2°C° 0 mm 2 mps 741 mmHg 92%
    23:00 -2°C° 0 mm 2 mps 741 mmHg 92%
    Show more